Time,TemperatureF,DewpointF,PressureIn,WindDirection,WindDirectionDegrees,WindSpeedMPH,WindSpeedGustMPH,Humidity,HourlyPrecipIn,Conditions,Clouds,dailyrainin,SoftwareType,DateUTC
2013-03-08 05:35:00,63.0,61.8,30.13,South,180,0.0,5.8,96,0.00,CLR,,0.00,WeatherDisplay:10.37,2013-03-08 15:35:00,
2013-03-08 05:36:00,63.0,61.8,30.13,South,180,0.0,5.8,96,0.00,CLR,,0.00,WeatherDisplay:10.37,2013-03-08 15:36:00,
2013-03-08 05:41:00,62.8,61.6,29.94,South,180,1.0,2.2,96,0.00,CLR,,0.00,WeatherDisplay:10.37,2013-03-08 15:41:00,
2013-03-08 05:45:00,62.8,61.6,29.94,SSE,150,1.0,2.0,96,0.00,CLR,,0.00,WeatherDisplay:10.37,2013-03-08 15:45:00,
2013-03-08 05:50:00,62.6,61.4,29.94,South,180,2.3,2.3,96,0.00,CLR,,0.00,WeatherDisplay:10.37,2013-03-08 15:50:00,
2013-03-08 05:55:00,62.4,61.2,29.94,SW,225,2.7,2.7,96,0.00,CLR,,0.00,WeatherDisplay:10.37,2013-03-08 15:55:00,
2013-03-08 06:00:00,62.4,61.2,29.94,South,186,2.0,3.0,96,0.00,CLR,,0.00,WeatherDisplay:10.37,2013-03-08 16:00:00,
2013-03-08 06:05:00,62.4,61.2,29.94,West,270,2.2,2.7,96,0.00,CLR,,0.00,WeatherDisplay:10.37,2013-03-08 16:05:00,
2013-03-08 06:10:00,62.4,61.2,29.94,South,180,2.0,2.3,96,0.00,CLR,,0.00,WeatherDisplay:10.37,2013-03-08 16:10:00,
2013-03-08 06:15:00,62.4,61.2,29.94,SW,225,3.8,4.6,96,0.00,CLR,,0.00,WeatherDisplay:10.37,2013-03-08 16:15:00,
2013-03-08 06:20:00,62.2,61.0,29.94,South,180,0.3,1.1,96,0.00,CLR,,0.00,WeatherDisplay:10.37,2013-03-08 16:20:00,
2013-03-08 06:25:00,62.2,61.0,29.95,South,180,2.0,2.3,96,0.00,CLR,,0.00,WeatherDisplay:10.37,2013-03-08 16:25:00,
2013-03-08 06:30:00,62.1,60.9,29.95,West,270,2.7,2.7,96,0.00,CLR,,0.00,WeatherDisplay:10.37,2013-03-08 16:30:00,
2013-03-08 06:35:00,61.9,60.7,29.95,SSW,202,2.6,2.6,96,0.00,CLR,,0.00,WeatherDisplay:10.37,2013-03-08 16:35:00,
2013-03-08 06:40:00,61.9,60.7,29.95,South,180,2.8,3.5,96,0.00,CLR,,0.00,WeatherDisplay:10.37,2013-03-08 16:40:00,
2013-03-08 06:45:00,61.7,60.5,29.95,SSW,202,2.0,2.7,96,0.00,CLR,,0.00,WeatherDisplay:10.37,2013-03-08 16:45:00,
2013-03-08 06:50:00,61.7,60.5,29.95,SSE,158,2.7,2.7,96,0.00,CLR,,0.00,WeatherDisplay:10.37,2013-03-08 16:50:00,
2013-03-08 06:55:00,61.7,60.5,29.95,SSE,158,2.2,2.3,96,0.00,CLR,,0.00,WeatherDisplay:10.37,2013-03-08 16:55:00,
2013-03-08 07:00:00,61.7,60.5,29.96,WSW,248,2.7,3.5,96,0.00,CLR,,0.00,WeatherDisplay:10.37,2013-03-08 17:00:00,
2013-03-08 07:05:00,61.7,60.5,29.96,SSW,202,0.0,1.1,96,0.00,CLR,,0.00,WeatherDisplay:10.37,2013-03-08 17:05:00,
2013-03-08 07:10:00,61.7,60.5,29.96,SW,225,3.0,3.5,96,0.00,CLR,,0.00,WeatherDisplay:10.37,2013-03-08 17:10:00,
2013-03-08 07:15:00,62.6,61.4,29.96,SSW,202,2.2,2.3,96,0.00,CLR,,0.00,WeatherDisplay:10.37,2013-03-08 17:15:00,
2013-03-08 07:21:00,63.0,61.8,29.96,SSE,158,2.1,2.3,96,0.00,CLR,,0.00,WeatherDisplay:10.37,2013-03-08 17:21:00,
2013-03-08 07:26:00,63.1,61.9,29.96,SSE,158,2.1,2.7,96,0.00,CLR,,0.00,WeatherDisplay:10.37,2013-03-08 17:26:00,
2013-03-08 07:31:00,64.0,62.8,29.96,SSE,158,1.5,2.3,96,0.00,CLR,,0.00,WeatherDisplay:10.37,2013-03-08 17:31:00,
2013-03-08 07:36:00,64.0,62.5,29.96,South,180,2.6,2.6,95,0.00,CLR,,0.00,WeatherDisplay:10.37,2013-03-08 17:36:00,
2013-03-08 07:41:00,64.2,62.7,29.96,SSW,202,2.0,2.3,95,0.00,CLR,,0.00,WeatherDisplay:10.37,2013-03-08 17:41:00,
2013-03-08 07:46:00,64.9,63.1,29.96,South,180,1.8,2.3,94,0.00,CLR,,0.00,WeatherDisplay:10.37,2013-03-08 17:46:00,
2013-03-08 07:51:00,65.5,63.1,29.96,WSW,248,1.7,1.7,92,0.00,CLR,,0.00,WeatherDisplay:10.37,2013-03-08 17:51:00,
2013-03-08 07:56:00,66.4,63.1,29.96,South,180,0.0,0.0,89,0.00,CLR,,0.00,WeatherDisplay:10.37,2013-03-08 17:56:00,
2013-03-08 08:01:00,67.8,64.4,29.96,SE,135,0.0,0.0,89,0.00,CLR,,0.00,WeatherDisplay:10.37,2013-03-08 18:01:00,
2013-03-08 08:06:00,67.8,63.5,29.96,ESE,112,0.8,1.7,86,0.00,CLR,,0.00,WeatherDisplay:10.37,2013-03-08 18:06:00,
2013-03-08 08:11:00,69.1,64.4,29.97,ENE,68,0.0,0.0,85,0.00,CLR,,0.00,WeatherDisplay:10.37,2013-03-08 18:11:00,
2013-03-08 08:16:00,70.0,64.2,29.97,ESE,112,2.1,2.3,82,0.00,CLR,,0.00,WeatherDisplay:10.37,2013-03-08 18:16:00,
2013-03-08 08:21:00,70.3,64.2,29.97,SE,135,2.3,3.5,81,0.00,CLR,,0.00,WeatherDisplay:10.37,2013-03-08 18:21:00,
2013-03-08 08:26:00,73.6,65.2,29.96,SE,135,2.1,2.3,75,0.00,CLR,,0.00,WeatherDisplay:10.37,2013-03-08 18:26:00,
2013-03-08 08:31:00,74.7,63.9,29.96,ESE,112,1.8,2.7,69,0.00,CLR,,0.00,WeatherDisplay:10.37,2013-03-08 18:31:00,
2013-03-08 08:36:00,75.2,61.7,29.97,South,180,2.9,3.5,63,0.00,CLR,,0.00,WeatherDisplay:10.37,2013-03-08 18:36:00,
2013-03-08 08:42:00,76.3,62.3,29.97,SSE,158,3.1,3.7,62,0.00,CLR,,0.00,WeatherDisplay:10.37,2013-03-08 18:42:00,
2013-03-08 08:47:00,77.0,61.6,29.97,South,180,2.3,3.5,59,0.00,CLR,,0.00,WeatherDisplay:10.37,2013-03-08 18:47:00,
2013-03-08 08:52:00,77.4,61.5,29.97,SE,135,3.5,4.6,58,0.00,CLR,,0.00,WeatherDisplay:10.37,2013-03-08 18:52:00,
2013-03-08 08:57:00,77.4,60.5,29.97,SSE,158,3.8,4.7,56,0.00,CLR,,0.00,WeatherDisplay:10.37,2013-03-08 18:57:00,
2013-03-08 09:02:00,77.2,59.8,29.97,ESE,112,4.2,5.8,55,0.00,CLR,,0.00,WeatherDisplay:10.37,2013-03-08 19:02:00,
2013-03-08 09:07:00,77.9,60.9,29.97,SE,135,0.2,2.3,56,0.00,CLR,,0.00,WeatherDisplay:10.37,2013-03-08 19:07:00,
2013-03-08 09:12:00,77.2,61.8,29.97,ESE,112,6.3,6.9,59,0.00,CLR,,0.00,WeatherDisplay:10.37,2013-03-08 19:12:00,
2013-03-08 09:17:00,77.5,61.6,29.97,ESE,112,4.4,5.8,58,0.00,CLR,,0.00,WeatherDisplay:10.37,2013-03-08 19:17:00,
2013-03-08 09:22:00,77.9,60.9,29.97,ESE,112,5.1,7.3,56,0.00,CLR,,0.00,WeatherDisplay:10.37,2013-03-08 19:22:00,
2013-03-08 09:27:00,78.3,61.8,29.96,East,90,6.1,6.1,57,0.00,CLR,,0.00,WeatherDisplay:10.37,2013-03-08 19:27:00,
2013-03-08 09:32:00,78.4,60.9,29.96,ESE,112,5.7,5.8,55,0.00,CLR,,0.00,WeatherDisplay:10.37,2013-03-08 19:32:00,
2013-03-08 09:37:00,79.0,60.9,29.96,SE,135,5.3,6.9,54,0.00,CLR,,0.00,WeatherDisplay:10.37,2013-03-08 19:37:00,
2013-03-08 09:42:00,77.7,60.2,29.96,ESE,112,7.9,10.4,55,0.00,CLR,,0.00,WeatherDisplay:10.37,2013-03-08 19:42:00,
2013-03-08 09:47:00,78.8,61.3,29.95,SSE,158,7.7,9.4,55,0.00,CLR,,0.00,WeatherDisplay:10.37,2013-03-08 19:47:00,
2013-03-08 09:52:00,79.5,61.9,29.95,SSW,202,5.7,9.4,55,0.00,CLR,,0.00,WeatherDisplay:10.37,2013-03-08 19:52:00,
2013-03-08 09:57:00,78.8,60.2,29.95,SSE,158,6.7,8.8,53,0.00,CLR,,0.00,WeatherDisplay:10.37,2013-03-08 19:57:00,
2013-03-08 10:03:00,79.7,61.1,29.96,SSE,158,8.4,9.2,53,0.00,CLR,,0.00,WeatherDisplay:10.37,2013-03-08 20:03:00,
2013-03-08 10:08:00,79.2,60.6,29.96,East,90,5.4,7.3,53,0.00,CLR,,0.00,WeatherDisplay:10.37,2013-03-08 20:08:00,
2013-03-08 10:13:00,79.3,60.7,29.96,ESE,112,7.8,9.2,53,0.00,CLR,,0.00,WeatherDisplay:10.37,2013-03-08 20:13:00,
2013-03-08 10:18:00,79.7,61.1,29.96,SSE,158,6.0,8.8,53,0.00,CLR,,0.00,WeatherDisplay:10.37,2013-03-08 20:18:00,
2013-03-08 10:23:00,79.2,59.5,29.95,East,90,4.4,5.8,51,0.00,CLR,,0.00,WeatherDisplay:10.37,2013-03-08 20:23:00,
2013-03-08 10:28:00,79.2,60.1,29.95,West,270,6.8,8.1,52,0.00,CLR,,0.00,WeatherDisplay:10.37,2013-03-08 20:28:00,
2013-03-08 10:33:00,79.3,59.6,29.95,NNE,22,6.9,6.9,51,0.00,CLR,,0.00,WeatherDisplay:10.37,2013-03-08 20:33:00,
2013-03-08 10:38:00,81.5,59.9,29.94,SSE,158,6.4,8.1,48,0.00,CLR,,0.00,WeatherDisplay:10.37,2013-03-08 20:38:00,
2013-03-08 10:43:00,79.9,58.5,29.94,ESE,112,8.4,8.8,48,0.00,CLR,,0.00,WeatherDisplay:10.37,2013-03-08 20:43:00,
2013-03-08 10:48:00,81.0,59.5,29.94,ESE,112,6.6,8.3,48,0.00,CLR,,0.00,WeatherDisplay:10.37,2013-03-08 20:48:00,
2013-03-08 10:53:00,81.5,59.9,29.94,South,180,6.5,8.1,48,0.00,CLR,,0.00,WeatherDisplay:10.37,2013-03-08 20:53:00,
2013-03-08 10:58:00,80.8,58.1,29.94,ESE,112,6.5,8.8,46,0.00,CLR,,0.00,WeatherDisplay:10.37,2013-03-08 20:58:00,
2013-03-08 11:03:00,81.7,58.9,29.94,SSE,158,7.6,10.4,46,0.00,CLR,,0.00,WeatherDisplay:10.37,2013-03-08 21:03:00,
2013-03-08 11:08:00,82.0,57.9,29.94,SW,225,4.9,8.1,44,0.00,CLR,,0.00,WeatherDisplay:10.37,2013-03-08 21:08:00,
2013-03-08 11:14:00,81.9,57.2,29.93,SSE,158,5.3,10.4,43,0.00,CLR,,0.00,WeatherDisplay:10.37,2013-03-08 21:14:00,
2013-03-08 11:19:00,81.0,56.4,29.93,South,180,9.0,11.5,43,0.00,CLR,,0.00,WeatherDisplay:10.37,2013-03-08 21:19:00,
2013-03-08 11:24:00,81.3,56.7,29.92,South,180,8.4,10.4,43,0.00,CLR,,0.00,WeatherDisplay:10.37,2013-03-08 21:24:00,
2013-03-08 11:29:00,81.7,57.0,29.92,SE,135,11.4,11.5,43,0.00,CLR,,0.00,WeatherDisplay:10.37,2013-03-08 21:29:00,
2013-03-08 11:34:00,81.9,56.6,29.92,SE,135,11.9,11.9,42,0.00,CLR,,0.00,WeatherDisplay:10.37,2013-03-08 21:34:00,
2013-03-08 11:39:00,80.8,54.9,29.92,SE,135,11.3,11.5,41,0.00,CLR,,0.00,WeatherDisplay:10.37,2013-03-08 21:39:00,
2013-03-08 11:44:00,82.6,55.8,29.92,SSE,158,8.7,11.5,40,0.00,CLR,,0.00,WeatherDisplay:10.37,2013-03-08 21:44:00,
2013-03-08 11:49:00,81.5,54.2,29.91,ESE,112,4.3,6.9,39,0.00,CLR,,0.00,WeatherDisplay:10.37,2013-03-08 21:49:00,
2013-03-08 11:54:00,82.2,55.5,29.91,SSE,158,9.8,12.7,40,0.00,CLR,,0.00,WeatherDisplay:10.37,2013-03-08 21:54:00,
2013-03-08 11:59:00,81.1,53.8,29.91,SSW,202,8.1,10.4,39,0.00,CLR,,0.00,WeatherDisplay:10.37,2013-03-08 21:59:00,
2013-03-08 12:04:00,81.9,54.5,29.91,SE,135,7.8,9.4,39,0.00,CLR,,0.00,WeatherDisplay:10.37,2013-03-08 22:04:00,
2013-03-08 12:09:00,82.0,53.9,29.91,SSE,158,6.6,7.3,38,0.00,CLR,,0.00,WeatherDisplay:10.37,2013-03-08 22:09:00,
2013-03-08 12:14:00,83.3,55.0,29.90,SE,135,9.5,12.4,38,0.00,CLR,,0.00,WeatherDisplay:10.37,2013-03-08 22:14:00,
2013-03-08 12:19:00,82.6,54.4,29.90,SSW,202,12.0,16.1,38,0.00,CLR,,0.00,WeatherDisplay:10.37,2013-03-08 22:19:00,
2013-03-08 12:24:00,82.2,54.1,29.90,SE,135,8.5,13.8,38,0.00,CLR,,0.00,WeatherDisplay:10.37,2013-03-08 22:24:00,
2013-03-08 12:29:00,81.7,53.6,29.90,ESE,112,3.7,3.7,38,0.00,CLR,,0.00,WeatherDisplay:10.37,2013-03-08 22:29:00,
2013-03-08 12:35:00,81.7,53.6,29.90,ESE,112,3.0,4.0,38,0.00,CLR,,0.00,WeatherDisplay:10.37,2013-03-08 22:35:00,
2013-03-08 12:40:00,81.7,53.6,29.90,ESE,112,3.0,4.0,38,0.00,CLR,,0.00,WeatherDisplay:10.37,2013-03-08 22:40:00,
2013-03-08 12:45:00,81.7,53.6,29.90,ESE,112,3.7,3.7,38,0.00,CLR,,0.00,WeatherDisplay:10.37,2013-03-08 22:45:00,
2013-03-08 12:50:00,81.7,53.6,29.90,ESE,112,3.7,3.7,38,0.00,CLR,,0.00,WeatherDisplay:10.37,2013-03-08 22:50:00,
2013-03-08 12:55:00,81.7,53.6,29.90,ESE,112,3.7,3.7,38,0.00,CLR,,0.00,WeatherDisplay:10.37,2013-03-08 22:55:00,
2013-03-08 13:00:00,81.7,53.6,29.90,ESE,112,3.7,3.7,38,0.00,CLR,,0.00,WeatherDisplay:10.37,2013-03-08 23:00:00,
2013-03-08 13:05:00,81.7,53.6,29.90,ESE,112,3.7,3.7,38,0.00,CLR,,0.00,WeatherDisplay:10.37,2013-03-08 23:05:00,
2013-03-08 13:10:00,81.7,53.6,29.90,ESE,112,3.7,3.7,38,0.00,CLR,,0.00,WeatherDisplay:10.37,2013-03-08 23:10:00,
2013-03-08 13:15:00,81.7,53.6,29.90,ESE,112,3.7,3.7,38,0.00,CLR,,0.00,WeatherDisplay:10.37,2013-03-08 23:15:00,
2013-03-08 13:20:00,81.7,53.6,29.90,ESE,112,3.7,3.7,38,0.00,CLR,,0.00,WeatherDisplay:10.37,2013-03-08 23:20:00,
2013-03-08 13:25:00,81.7,53.6,29.90,ESE,112,3.7,3.7,38,0.00,CLR,,0.00,WeatherDisplay:10.37,2013-03-08 23:25:00,
2013-03-08 13:30:00,81.7,53.6,29.90,ESE,112,3.7,3.7,38,0.00,CLR,,0.00,WeatherDisplay:10.37,2013-03-08 23:30:00,
2013-03-08 13:35:00,81.7,53.6,29.90,ESE,112,3.7,3.7,38,0.00,CLR,,0.00,WeatherDisplay:10.37,2013-03-08 23:35:00,
2013-03-08 13:40:00,81.7,53.6,29.90,ESE,112,3.7,3.7,38,0.00,CLR,,0.00,WeatherDisplay:10.37,2013-03-08 23:40:00,
2013-03-08 13:46:00,81.7,53.6,29.90,ESE,112,3.7,3.7,38,0.00,CLR,,0.00,WeatherDisplay:10.37,2013-03-08 23:46:00,
2013-03-08 13:51:00,81.7,53.6,29.90,ESE,112,3.7,3.7,38,0.00,CLR,,0.00,WeatherDisplay:10.37,2013-03-08 23:51:00,
2013-03-08 13:56:00,81.7,53.6,29.90,ESE,112,3.7,3.7,38,0.00,CLR,,0.00,WeatherDisplay:10.37,2013-03-08 23:56:00,
2013-03-08 14:01:00,81.7,53.6,29.90,ESE,112,3.7,3.7,38,0.00,CLR,,0.00,WeatherDisplay:10.37,2013-03-09 00:01:00,
2013-03-08 14:06:00,81.7,53.6,29.90,ESE,112,3.7,3.7,38,0.00,CLR,,0.00,WeatherDisplay:10.37,2013-03-09 00:06:00,
2013-03-08 14:11:00,81.7,53.6,29.90,ESE,112,3.7,3.7,38,0.00,CLR,,0.00,WeatherDisplay:10.37,2013-03-09 00:11:00,
2013-03-08 14:16:00,81.7,53.6,29.90,ESE,112,3.7,3.7,38,0.00,CLR,,0.00,WeatherDisplay:10.37,2013-03-09 00:16:00,
2013-03-08 14:21:00,81.7,53.6,29.90,ESE,112,3.7,3.7,38,0.00,CLR,,0.00,WeatherDisplay:10.37,2013-03-09 00:21:00,
2013-03-08 14:26:00,81.7,53.6,29.90,ESE,112,3.7,3.7,38,0.00,CLR,,0.00,WeatherDisplay:10.37,2013-03-09 00:26:00,
2013-03-08 14:31:00,81.7,53.6,29.90,ESE,112,3.7,3.7,38,0.00,CLR,,0.00,WeatherDisplay:10.37,2013-03-09 00:31:00,
2013-03-08 14:36:00,81.7,53.6,29.90,ESE,112,3.7,3.7,38,0.00,CLR,,0.00,WeatherDisplay:10.37,2013-03-09 00:36:00,
2013-03-08 14:41:00,81.7,53.6,29.90,ESE,112,3.7,3.7,38,0.00,CLR,,0.00,WeatherDisplay:10.37,2013-03-09 00:41:00,
2013-03-08 14:46:00,81.7,53.6,29.90,ESE,112,3.7,3.7,38,0.00,CLR,,0.00,WeatherDisplay:10.37,2013-03-09 00:46:00,
2013-03-08 14:51:00,81.7,53.6,29.90,ESE,112,3.7,3.7,38,0.00,CLR,,0.00,WeatherDisplay:10.37,2013-03-09 00:51:00,
2013-03-08 14:57:00,81.7,53.6,29.90,ESE,112,3.7,3.7,38,0.00,CLR,,0.00,WeatherDisplay:10.37,2013-03-09 00:57:00,
2013-03-08 15:02:00,81.7,53.6,29.90,ESE,112,3.7,3.7,38,0.00,CLR,,0.00,WeatherDisplay:10.37,2013-03-09 01:02:00,
2013-03-08 15:07:00,81.7,53.6,29.90,ESE,112,3.7,3.7,38,0.00,CLR,,0.00,WeatherDisplay:10.37,2013-03-09 01:07:00,
2013-03-08 15:12:00,81.7,53.6,29.90,ESE,112,3.7,3.7,38,0.00,CLR,,0.00,WeatherDisplay:10.37,2013-03-09 01:12:00,
2013-03-08 15:17:00,81.7,53.6,29.90,ESE,112,3.7,3.7,38,0.00,CLR,,0.00,WeatherDisplay:10.37,2013-03-09 01:17:00,
2013-03-08 15:22:00,81.7,53.6,29.90,ESE,112,3.7,3.7,38,0.00,CLR,,0.00,WeatherDisplay:10.37,2013-03-09 01:22:00,
2013-03-08 15:27:00,81.7,53.6,29.90,ESE,112,3.7,3.7,38,0.00,CLR,,0.00,WeatherDisplay:10.37,2013-03-09 01:27:00,
2013-03-08 15:32:00,81.7,53.6,29.90,ESE,112,3.7,3.7,38,0.00,CLR,,0.00,WeatherDisplay:10.37,2013-03-09 01:32:00,
2013-03-08 15:37:00,81.7,53.6,29.90,ESE,112,3.7,3.7,38,0.00,CLR,,0.00,WeatherDisplay:10.37,2013-03-09 01:37:00,
2013-03-08 15:42:00,81.7,53.6,29.90,ESE,112,3.7,3.7,38,0.00,CLR,,0.00,WeatherDisplay:10.37,2013-03-09 01:42:00,
2013-03-08 15:47:00,81.7,53.6,29.90,ESE,112,3.7,3.7,38,0.00,CLR,,0.00,WeatherDisplay:10.37,2013-03-09 01:47:00,
2013-03-08 15:52:00,81.7,53.6,29.90,ESE,112,3.7,3.7,38,0.00,CLR,,0.00,WeatherDisplay:10.37,2013-03-09 01:52:00,
2013-03-08 15:57:00,81.7,53.6,29.90,ESE,112,3.7,3.7,38,0.00,CLR,,0.00,WeatherDisplay:10.37,2013-03-09 01:57:00,
2013-03-08 16:02:00,81.7,53.6,29.90,ESE,112,3.7,3.7,38,0.00,CLR,,0.00,WeatherDisplay:10.37,2013-03-09 02:02:00,
2013-03-08 16:08:00,81.7,53.6,29.90,ESE,112,3.7,3.7,38,0.00,CLR,,0.00,WeatherDisplay:10.37,2013-03-09 02:08:00,
2013-03-08 16:13:00,81.7,53.6,29.90,ESE,112,3.7,3.7,38,0.00,CLR,,0.00,WeatherDisplay:10.37,2013-03-09 02:13:00,
2013-03-08 16:18:00,81.7,53.6,29.90,ESE,112,3.7,3.7,38,0.00,CLR,,0.00,WeatherDisplay:10.37,2013-03-09 02:18:00,
2013-03-08 16:23:00,81.7,53.6,29.90,ESE,112,3.7,3.7,38,0.00,CLR,,0.00,WeatherDisplay:10.37,2013-03-09 02:23:00,
2013-03-08 16:28:00,81.7,53.6,29.90,ESE,112,3.7,3.7,38,0.00,CLR,,0.00,WeatherDisplay:10.37,2013-03-09 02:28:00,
2013-03-08 16:33:00,81.7,53.6,29.90,ESE,112,3.7,3.7,38,0.00,CLR,,0.00,WeatherDisplay:10.37,2013-03-09 02:33:00,
2013-03-08 16:38:00,81.7,53.6,29.90,ESE,112,3.7,3.7,38,0.00,CLR,,0.00,WeatherDisplay:10.37,2013-03-09 02:38:00,
2013-03-08 16:43:00,81.7,53.6,29.90,ESE,112,3.7,3.7,38,0.00,CLR,,0.00,WeatherDisplay:10.37,2013-03-09 02:43:00,
2013-03-08 16:48:00,81.7,53.6,29.90,ESE,112,3.7,3.7,38,0.00,CLR,,0.00,WeatherDisplay:10.37,2013-03-09 02:48:00,
2013-03-08 16:53:00,81.7,53.6,29.90,ESE,112,3.7,3.7,38,0.00,CLR,,0.00,WeatherDisplay:10.37,2013-03-09 02:53:00,
2013-03-08 16:58:00,81.7,53.6,29.90,ESE,112,3.7,3.7,38,0.00,CLR,,0.00,WeatherDisplay:10.37,2013-03-09 02:58:00,
2013-03-08 17:03:00,81.7,53.6,29.90,ESE,112,3.7,3.7,38,0.00,CLR,,0.00,WeatherDisplay:10.37,2013-03-09 03:03:00,
2013-03-08 17:08:00,81.7,53.6,29.90,ESE,112,3.7,3.7,38,0.00,CLR,,0.00,WeatherDisplay:10.37,2013-03-09 03:08:00,
2013-03-08 17:13:00,81.7,53.6,29.90,ESE,112,3.7,3.7,38,0.00,CLR,,0.00,WeatherDisplay:10.37,2013-03-09 03:13:00,
2013-03-08 17:18:00,81.7,53.6,29.90,ESE,112,3.7,3.7,38,0.00,CLR,,0.00,WeatherDisplay:10.37,2013-03-09 03:18:00,
2013-03-08 17:24:00,81.7,53.6,29.90,ESE,112,3.7,3.7,38,0.00,CLR,,0.00,WeatherDisplay:10.37,2013-03-09 03:24:00,
2013-03-08 17:29:00,81.7,53.6,29.90,ESE,112,3.7,3.7,38,0.00,CLR,,0.00,WeatherDisplay:10.37,2013-03-09 03:29:00,
2013-03-08 17:34:00,81.7,53.6,29.90,ESE,112,3.7,3.7,38,0.00,CLR,,0.00,WeatherDisplay:10.37,2013-03-09 03:34:00,
2013-03-08 17:39:00,81.7,53.6,29.90,ESE,112,3.7,3.7,38,0.00,CLR,,0.00,WeatherDisplay:10.37,2013-03-09 03:39:00,
2013-03-08 17:44:00,81.7,53.6,29.90,ESE,112,3.7,3.7,38,0.00,CLR,,0.00,WeatherDisplay:10.37,2013-03-09 03:44:00,
2013-03-08 17:49:00,81.7,53.6,29.90,ESE,112,3.7,3.7,38,0.00,CLR,,0.00,WeatherDisplay:10.37,2013-03-09 03:49:00,
2013-03-08 17:54:00,81.7,53.6,29.90,ESE,112,3.7,3.7,38,0.00,CLR,,0.00,WeatherDisplay:10.37,2013-03-09 03:54:00,
2013-03-08 17:59:00,81.7,53.6,29.90,ESE,112,3.7,3.7,38,0.00,CLR,,0.00,WeatherDisplay:10.37,2013-03-09 03:59:00,
2013-03-08 18:04:00,81.7,53.6,29.90,ESE,112,3.7,3.7,38,0.00,CLR,,0.00,WeatherDisplay:10.37,2013-03-09 04:04:00,
2013-03-08 18:09:00,81.7,53.6,29.90,ESE,112,3.7,3.7,38,0.00,CLR,,0.00,WeatherDisplay:10.37,2013-03-09 04:09:00,
2013-03-08 18:14:00,81.7,53.6,29.90,ESE,112,3.7,3.7,38,0.00,CLR,,0.00,WeatherDisplay:10.37,2013-03-09 04:14:00,
2013-03-08 18:19:00,81.7,53.6,29.90,ESE,112,3.7,3.7,38,0.00,CLR,,0.00,WeatherDisplay:10.37,2013-03-09 04:19:00,
2013-03-08 18:24:00,81.7,53.6,29.90,ESE,112,3.7,3.7,38,0.00,CLR,,0.00,WeatherDisplay:10.37,2013-03-09 04:24:00,
2013-03-08 18:30:00,81.7,53.6,29.90,ESE,112,3.7,3.7,38,0.00,CLR,,0.00,WeatherDisplay:10.37,2013-03-09 04:30:00,
2013-03-08 18:35:00,81.7,53.6,29.90,ESE,112,3.0,4.0,38,0.00,CLR,,0.00,WeatherDisplay:10.37,2013-03-09 04:35:00,
2013-03-08 18:40:00,81.7,53.6,29.90,ESE,112,3.7,3.7,38,0.00,CLR,,0.00,WeatherDisplay:10.37,2013-03-09 04:40:00,
2013-03-08 18:45:00,81.7,53.6,29.90,ESE,112,3.0,4.0,38,0.00,CLR,,0.00,WeatherDisplay:10.37,2013-03-09 04:45:00,
2013-03-08 18:50:00,81.7,53.6,29.90,ESE,112,3.0,4.0,38,0.00,CLR,,0.00,WeatherDisplay:10.37,2013-03-09 04:50:00,
2013-03-08 18:55:00,81.7,53.6,29.90,ESE,112,3.0,4.0,38,0.00,CLR,,0.00,WeatherDisplay:10.37,2013-03-09 04:55:00,
2013-03-08 19:00:00,81.7,53.6,29.90,ESE,112,3.7,3.7,38,0.00,CLR,,0.00,WeatherDisplay:10.37,2013-03-09 05:00:00,
2013-03-08 19:05:00,81.7,53.6,29.90,ESE,112,3.7,3.7,38,0.00,CLR,,0.00,WeatherDisplay:10.37,2013-03-09 05:05:00,
2013-03-08 19:10:00,81.7,53.6,29.90,ESE,112,3.7,3.7,38,0.00,CLR,,0.00,WeatherDisplay:10.37,2013-03-09 05:10:00,
2013-03-08 19:15:00,81.7,53.6,29.90,ESE,112,3.7,3.7,38,0.00,CLR,,0.00,WeatherDisplay:10.37,2013-03-09 05:15:00,
2013-03-08 19:20:00,81.7,53.6,29.90,ESE,112,3.7,3.7,38,0.00,CLR,,0.00,WeatherDisplay:10.37,2013-03-09 05:20:00,
2013-03-08 19:25:00,81.7,53.6,29.90,ESE,112,3.7,3.7,38,0.00,CLR,,0.00,WeatherDisplay:10.37,2013-03-09 05:25:00,
2013-03-08 19:30:00,81.7,53.6,29.90,ESE,112,3.7,3.7,38,0.00,CLR,,0.00,WeatherDisplay:10.37,2013-03-09 05:30:00,
2013-03-08 19:36:00,81.7,53.6,29.90,ESE,112,3.7,3.7,38,0.00,CLR,,0.00,WeatherDisplay:10.37,2013-03-09 05:36:00,
2013-03-08 19:41:00,81.7,53.6,29.90,ESE,112,3.7,3.7,38,0.00,CLR,,0.00,WeatherDisplay:10.37,2013-03-09 05:41:00,
2013-03-08 19:46:00,81.7,53.6,29.90,ESE,112,3.7,3.7,38,0.00,CLR,,0.00,WeatherDisplay:10.37,2013-03-09 05:46:00,
2013-03-08 19:51:00,81.7,53.6,29.90,ESE,112,3.7,3.7,38,0.00,CLR,,0.00,WeatherDisplay:10.37,2013-03-09 05:51:00,
2013-03-08 19:56:00,81.7,53.6,29.90,ESE,112,3.7,3.7,38,0.00,CLR,,0.00,WeatherDisplay:10.37,2013-03-09 05:56:00,
2013-03-08 20:01:00,81.7,53.6,29.90,ESE,112,3.7,3.7,38,0.00,CLR,,0.00,WeatherDisplay:10.37,2013-03-09 06:01:00,
2013-03-08 20:06:00,81.7,53.6,29.90,ESE,112,3.7,3.7,38,0.00,CLR,,0.00,WeatherDisplay:10.37,2013-03-09 06:06:00,
2013-03-08 20:11:00,81.7,53.6,29.90,ESE,112,3.7,3.7,38,0.00,CLR,,0.00,WeatherDisplay:10.37,2013-03-09 06:11:00,
2013-03-08 20:16:00,81.7,53.6,29.90,ESE,112,3.7,3.7,38,0.00,CLR,,0.00,WeatherDisplay:10.37,2013-03-09 06:16:00,
2013-03-08 20:21:00,81.7,53.6,29.90,ESE,112,3.7,3.7,38,0.00,CLR,,0.00,WeatherDisplay:10.37,2013-03-09 06:21:00,
2013-03-08 20:26:00,81.7,53.6,29.90,ESE,112,3.7,3.7,38,0.00,CLR,,0.00,WeatherDisplay:10.37,2013-03-09 06:26:00,
2013-03-08 20:31:00,81.7,53.6,29.90,ESE,112,3.7,3.7,38,0.00,CLR,,0.00,WeatherDisplay:10.37,2013-03-09 06:31:00,
2013-03-08 20:36:00,81.7,53.6,29.90,ESE,112,3.7,3.7,38,0.00,CLR,,0.00,WeatherDisplay:10.37,2013-03-09 06:36:00,
2013-03-08 20:41:00,81.7,53.6,29.90,ESE,112,3.7,3.7,38,0.00,CLR,,0.00,WeatherDisplay:10.37,2013-03-09 06:41:00,
2013-03-08 20:47:00,81.7,53.6,29.90,ESE,112,3.7,3.7,38,0.00,CLR,,0.00,WeatherDisplay:10.37,2013-03-09 06:47:00,
2013-03-08 20:52:00,81.7,53.6,29.90,ESE,112,3.7,3.7,38,0.00,CLR,,0.00,WeatherDisplay:10.37,2013-03-09 06:52:00,
2013-03-08 20:57:00,81.7,53.6,29.90,ESE,112,3.7,3.7,38,0.00,CLR,,0.00,WeatherDisplay:10.37,2013-03-09 06:57:00,
2013-03-08 21:02:00,81.7,53.6,29.90,ESE,112,3.7,3.7,38,0.00,CLR,,0.00,WeatherDisplay:10.37,2013-03-09 07:02:00,
2013-03-08 21:07:00,81.7,53.6,29.90,ESE,112,3.7,3.7,38,0.00,CLR,,0.00,WeatherDisplay:10.37,2013-03-09 07:07:00,
2013-03-08 21:12:00,81.7,53.6,29.90,ESE,112,3.7,3.7,38,0.00,CLR,,0.00,WeatherDisplay:10.37,2013-03-09 07:12:00,
2013-03-08 21:17:00,81.7,53.6,29.90,ESE,112,3.7,3.7,38,0.00,CLR,,0.00,WeatherDisplay:10.37,2013-03-09 07:17:00,
2013-03-08 21:22:00,81.7,53.6,29.90,ESE,112,3.7,3.7,38,0.00,CLR,,0.00,WeatherDisplay:10.37,2013-03-09 07:22:00,
2013-03-08 21:27:00,81.7,53.6,29.90,ESE,112,3.7,3.7,38,0.00,CLR,,0.00,WeatherDisplay:10.37,2013-03-09 07:27:00,
2013-03-08 21:32:00,81.7,53.6,29.90,ESE,112,3.7,3.7,38,0.00,CLR,,0.00,WeatherDisplay:10.37,2013-03-09 07:32:00,
2013-03-08 21:37:00,81.7,53.6,29.90,ESE,112,3.7,3.7,38,0.00,CLR,,0.00,WeatherDisplay:10.37,2013-03-09 07:37:00,
2013-03-08 21:42:00,81.7,53.6,29.90,ESE,112,3.7,3.7,38,0.00,CLR,,0.00,WeatherDisplay:10.37,2013-03-09 07:42:00,
2013-03-08 21:47:00,81.7,53.6,29.90,ESE,112,3.7,3.7,38,0.00,CLR,,0.00,WeatherDisplay:10.37,2013-03-09 07:47:00,
2013-03-08 21:52:00,81.7,53.6,29.90,ESE,112,3.7,3.7,38,0.00,CLR,,0.00,WeatherDisplay:10.37,2013-03-09 07:52:00,
2013-03-08 21:58:00,81.7,53.6,29.90,ESE,112,3.7,3.7,38,0.00,CLR,,0.00,WeatherDisplay:10.37,2013-03-09 07:58:00,
2013-03-08 22:03:00,81.7,53.6,29.90,ESE,112,3.7,3.7,38,0.00,CLR,,0.00,WeatherDisplay:10.37,2013-03-09 08:03:00,
2013-03-08 22:08:00,81.7,53.6,29.90,ESE,112,3.7,3.7,38,0.00,CLR,,0.00,WeatherDisplay:10.37,2013-03-09 08:08:00,
2013-03-08 22:13:00,81.7,53.6,29.90,ESE,112,3.7,3.7,38,0.00,CLR,,0.00,WeatherDisplay:10.37,2013-03-09 08:13:00,
2013-03-08 22:18:00,81.7,53.6,29.90,ESE,112,3.7,3.7,38,0.00,CLR,,0.00,WeatherDisplay:10.37,2013-03-09 08:18:00,
2013-03-08 22:23:00,81.7,53.6,29.90,ESE,112,3.7,3.7,38,0.00,CLR,,0.00,WeatherDisplay:10.37,2013-03-09 08:23:00,
2013-03-08 22:28:00,81.7,53.6,29.90,ESE,112,3.7,3.7,38,0.00,CLR,,0.00,WeatherDisplay:10.37,2013-03-09 08:28:00,
2013-03-08 22:33:00,81.7,53.6,29.90,ESE,112,3.7,3.7,38,0.00,CLR,,0.00,WeatherDisplay:10.37,2013-03-09 08:33:00,
2013-03-08 22:38:00,81.7,53.6,29.90,ESE,112,3.7,3.7,38,0.00,CLR,,0.00,WeatherDisplay:10.37,2013-03-09 08:38:00,
2013-03-08 22:43:00,81.7,53.6,29.90,ESE,112,3.7,3.7,38,0.00,CLR,,0.00,WeatherDisplay:10.37,2013-03-09 08:43:00,
2013-03-08 22:48:00,81.7,53.6,29.90,ESE,112,3.7,3.7,38,0.00,CLR,,0.00,WeatherDisplay:10.37,2013-03-09 08:48:00,
2013-03-08 22:53:00,81.7,53.6,29.90,ESE,112,3.7,3.7,38,0.00,CLR,,0.00,WeatherDisplay:10.37,2013-03-09 08:53:00,
2013-03-08 22:58:00,81.7,53.6,29.90,ESE,112,3.7,3.7,38,0.00,CLR,,0.00,WeatherDisplay:10.37,2013-03-09 08:58:00,
2013-03-08 23:03:00,81.7,53.6,29.90,ESE,112,3.7,3.7,38,0.00,CLR,,0.00,WeatherDisplay:10.37,2013-03-09 09:03:00,
2013-03-08 23:09:00,81.7,53.6,29.90,ESE,112,3.7,3.7,38,0.00,CLR,,0.00,WeatherDisplay:10.37,2013-03-09 09:09:00,
2013-03-08 23:14:00,81.7,53.6,29.90,ESE,112,3.7,3.7,38,0.00,CLR,,0.00,WeatherDisplay:10.37,2013-03-09 09:14:00,
2013-03-08 23:19:00,81.7,53.6,29.90,ESE,112,3.7,3.7,38,0.00,CLR,,0.00,WeatherDisplay:10.37,2013-03-09 09:19:00,
2013-03-08 23:24:00,81.7,53.6,29.90,ESE,112,3.7,3.7,38,0.00,CLR,,0.00,WeatherDisplay:10.37,2013-03-09 09:24:00,
2013-03-08 23:29:00,81.7,53.6,29.90,ESE,112,3.7,3.7,38,0.00,CLR,,0.00,WeatherDisplay:10.37,2013-03-09 09:29:00,
2013-03-08 23:34:00,81.7,53.6,29.90,ESE,112,3.7,3.7,38,0.00,CLR,,0.00,WeatherDisplay:10.37,2013-03-09 09:34:00,
2013-03-08 23:39:00,81.7,53.6,29.90,ESE,112,3.7,3.7,38,0.00,CLR,,0.00,WeatherDisplay:10.37,2013-03-09 09:39:00,
2013-03-08 23:44:00,81.7,53.6,29.90,ESE,112,3.7,3.7,38,0.00,CLR,,0.00,WeatherDisplay:10.37,2013-03-09 09:44:00,
2013-03-08 23:49:00,81.7,53.6,29.90,ESE,112,3.7,3.7,38,0.00,CLR,,0.00,WeatherDisplay:10.37,2013-03-09 09:49:00,
2013-03-08 23:54:00,81.7,53.6,29.90,ESE,112,3.7,3.7,38,0.00,CLR,,0.00,WeatherDisplay:10.37,2013-03-09 09:54:00,
2013-03-08 23:59:00,81.7,53.6,29.90,ESE,112,3.7,3.7,38,0.00,CLR,,0.00,WeatherDisplay:10.37,2013-03-09 09:59:00,